Location: Unspecified
(0.0000°N, 0.0000°E)
Time: 07:21:22
(UTC+00:00)

Courier 1B - Pass Details

Date: 03 October 2023
Orbit: 962 x 1208 km, 28.3° (Epoch: 06 December)

Event Time Altitude Azimuth Distance (km) Brightness Sun altitude
Rises 04:27:13 0° 217° (SW) 3,636 - -20.5°
Exits shadow 04:28:41 - 211° (SSW) 3,194 9.9 -20.1°
Reaches altitude 10° 04:30:31 10° 201° (SSW) 2,691 9.6 -19.6°
Maximum altitude 04:35:20 22° 153° (SSE) 1,998 9.5 -18.4°
Drops below altitude 10° 04:40:13 10° 105° (ESE) 2,744 11.1 -17.2°
Sets 04:43:36 0° 90° (E) 3,727 12.4 -16.4°
